TimeEST,TemperatureF,Dew PointF,Humidity,Sea Level PressureIn,VisibilityMPH,Wind Direction,Wind SpeedMPH,Gust SpeedMPH,PrecipitationIn,Events,Conditions,WindDirDegrees,DateUTC
12:53 AM,59.0,46.0,62,29.97,10.0,SSW,10.4,-,N/A,,Clear,200,2012-11-11 05:53:00
1:53 AM,62.1,45.0,53,29.98,10.0,SSW,12.7,-,N/A,,Clear,210,2012-11-11 06:53:00
2:53 AM,61.0,45.0,56,29.99,10.0,SSW,12.7,-,N/A,,Clear,200,2012-11-11 07:53:00
3:53 AM,62.1,45.0,53,29.99,10.0,SSW,12.7,-,N/A,,Clear,200,2012-11-11 08:53:00
4:53 AM,61.0,45.0,56,30.02,10.0,SSW,15.0,-,N/A,,Clear,200,2012-11-11 09:53:00
5:53 AM,61.0,44.1,54,30.03,10.0,SSW,16.1,24.2,N/A,,Clear,200,2012-11-11 10:53:00
6:53 AM,57.0,45.0,64,30.04,10.0,South,10.4,-,N/A,,Clear,190,2012-11-11 11:53:00
7:53 AM,55.9,44.1,64,30.04,10.0,South,11.5,-,N/A,,Clear,190,2012-11-11 12:53:00
8:53 AM,59.0,44.1,58,30.05,10.0,South,11.5,-,N/A,,Clear,190,2012-11-11 13:53:00
9:53 AM,63.0,45.0,52,30.03,10.0,South,16.1,21.9,N/A,,Clear,190,2012-11-11 14:53:00
10:53 AM,62.6,46.4,55,30.01,10.0,South,18.4,25.3,N/A,,Clear,190,2012-11-11 15:53:00
11:53 AM,66.9,46.9,49,30.00,10.0,South,16.1,23.0,N/A,,Clear,190,2012-11-11 16:53:00
12:53 PM,68.0,48.0,49,29.96,10.0,South,21.9,26.5,N/A,,Clear,190,2012-11-11 17:53:00
1:53 PM,68.0,48.0,49,29.95,10.0,South,21.9,28.8,N/A,,Clear,190,2012-11-11 18:53:00
2:53 PM,70.0,48.9,47,29.92,10.0,South,23.0,28.8,N/A,,Clear,190,2012-11-11 19:53:00
3:53 PM,68.0,48.0,49,29.92,10.0,South,21.9,33.4,N/A,,Clear,190,2012-11-11 20:53:00
4:53 PM,66.9,46.9,49,29.91,10.0,South,17.3,31.1,N/A,,Clear,180,2012-11-11 21:53:00
5:53 PM,64.0,46.9,54,29.91,10.0,South,17.3,38.0,N/A,,Clear,180,2012-11-11 22:53:00
6:53 PM,63.0,43.0,48,29.90,10.0,South,19.6,31.1,N/A,,Clear,180,2012-11-11 23:53:00
7:53 PM,62.6,42.8,48,29.90,10.0,South,25.3,34.5,N/A,,Clear,180,2012-11-12 00:53:00
8:53 PM,62.1,43.0,50,29.90,10.0,South,16.1,29.9,N/A,,Clear,190,2012-11-12 01:53:00
9:53 PM,63.0,39.0,41,29.90,10.0,South,20.7,32.2,N/A,,Overcast,190,2012-11-12 02:53:00
10:53 PM,63.0,37.9,40,29.89,10.0,South,20.7,32.2,0.00,,Overcast,190,2012-11-12 03:53:00
11:53 PM,63.0,37.0,38,29.87,10.0,South,20.7,28.8,N/A,,Overcast,190,2012-11-12 04:53:00